Temp
-15 -15 -14 -14 -15 -15 -16 -16 -15 -14 -14 -13 -12 -11 -11 -11 -11 -10 -10 -10 -10 -10 -10 -9 -10 -10 -10 -9 -9 -9 -9 -9 -9 -10 -9 -9 -9 -10 -10 -10 -10 -10 -10 -10 -10
-15 -15 -15 -15 -15 -15 -15 -16 -16 -15 -14 -14 -13 -12 -12 -11 -11 -11 -10 -10 -10 -10 -10 -10 -10 -10 -10 -10 -9 -9 -9 -10 -10 -10 -10 -9 -10 -10 -10 -10 -10 -10 -10 -10 -10
-16 -15 -15 -15 -15 -15 -15 -16 -16 -15 -15 -14 -13 -12 -12 -12 -11 -11 -11 -10 -10 -10 -10 -10 -10 -10 -10 -10 -10 -10 -9 -10 -10 -10 -10 -10 -10 -10 -10 -10 -10 -10 -10 -10 -10
-16 -16 -15 -15 -15 -15 -16 -16 -15 -15 -14 -13 -13 -13 -13 -12 -11 -11 -11 -11 -11 -10 -10 -10 -10 -10 -10 -10 -10 -10 -9 -10 -10 -10 -10 -10 -10 -10 -10 -10 -10 -10 -10 -10 -10
-16 -16 -15 -15 -16 -15 -16 -16 -16 -15 -15 -14 -13 -13 -13 -12 -12 -11 -11 -11 -11 -11 -10 -10 -10 -10 -10 -10 -10 -10 -10 -10 -10 -10 -10 -10 -10 -10 -10 -10 -10 -10 -10 -10 -10
-16 -16 -15 -15 -16 -16 -16 -17 -16 -15 -15 -14 -14 -13 -13 -12 -12 -12 -11 -11 -11 -11 -11 -10 -10 -10 -10 -10 -10 -10 -10 -10 -10 -10 -10 -10 -10 -10 -10 -10 -11 -10 -10 -10 -10
-16 -16 -16 -15 -15 -15 -16 -17 -15 -16 -15 -14 -14 -13 -13 -13 -12 -12 -12 -11 -12 -11 -11 -11 -11 -10 -10 -10 -10 -10 -10 -10 -10 -10 -10 -10 -10 -10 -10 -10 -11 -10 -10 -10 -10
-17 -16 -16 -16 -15 -15 -16 -16 -15 -15 -16 -15 -14 -13 -13 -13 -13 -13 -12 -12 -12 -11 -11 -11 -11 -10 -10 -10 -10 -10 -10 -10 -10 -10 -10 -10 -10 -11 -10 -10 -10 -10 -10 -11 -11
-17 -17 -16 -16 -16 -15 -16 -16 -16 -16 -15 -16 -15 -14 -13 -13 -13 -13 -12 -12 -12 -12 -11 -11 -11 -11 -11 -10 -10 -10 -10 -10 -10 -10 -10 -10 -10 -10 -10 -10 -10 -10 -11 -11 -11
-17 -17 -17 -16 -16 -16 -15 -16 -16 -16 -15 -15 -14 -14 -13 -13 -13 -13 -13 -12 -12 -12 -11 -11 -11 -11 -10 -10 -10 -10 -11 -11 -11 -10 -10 -10 -10 -11 -11 -11 -11 -11 -11 -11 -11
-18 -17 -17 -17 -16 -16 -16 -15 -15 -16 -16 -15 -14 -14 -14 -13 -14 -13 -13 -13 -13 -12 -12 -11 -11 -11 -11 -11 -11 -11 -10 -11 -11 -10 -10 -10 -10 -11 -11 -11 -11 -11 -11 -11 -11
-18 -18 -17 -17 -17 -16 -16 -15 -15 -15 -15 -15 -15 -14 -14 -14 -13 -13 -13 -13 -12 -12 -12 -12 -11 -12 -11 -11 -11 -11 -11 -11 -11 -11 -11 -10 -10 -11 -11 -11 -11 -11 -11 -11 -11
-19 -18 -18 -18 -17 -17 -16 -16 -15 -15 -16 -15 -15 -15 -14 -14 -14 -13 -14 -13 -13 -13 -12 -12 -12 -12 -11 -11 -11 -11 -11 -11 -11 -11 -10 -10 -10 -11 -11 -11 -11 -11 -11 -11 -11
-18 -18 -18 -18 -17 -17 -16 -16 -16 -16 -15 -15 -15 -16 -15 -15 -14 -14 -14 -13 -13 -13 -13 -12 -12 -12 -12 -11 -11 -11 -11 -11 -11 -11 -10 -10 -10 -11 -11 -11 -11 -11 -11 -11 -11
-17 -18 -17 -17 -18 -17 -17 -17 -17 -16 -16 -16 -15 -15 -15 -15 -15 -14 -14 -13 -13 -13 -13 -12 -12 -12 -12 -12 -12 -11 -11 -11 -11 -11 -11 -10 -10 -10 -11 -11 -11 -11 -11 -11 -11
-18 -18 -17 -17 -18 -18 -18 -18 -17 -17 -15 -15 -15 -15 -14 -14 -14 -14 -14 -14 -14 -13 -13 -13 -13 -12 -12 -12 -12 -12 -12 -12 -11 -11 -11 -11 -10 -10 -10 -11 -11 -11 -11 -11 -11
-18 -18 -18 -17 -17 -18 -18 -19 -18 -17 -16 -15 -15 -14 -14 -14 -14 -14 -15 -14 -14 -13 -13 -13 -13 -12 -12 -12 -12 -12 -12 -12 -12 -11 -11 -10 -10 -10 -11 -11 -11 -11 -11 -11 -11
-18 -18 -18 -18 -18 -18 -18 -18 -18 -16 -16 -15 -15 -15 -15 -14 -14 -14 -14 -14 -13 -13 -13 -13 -13 -13 -13 -13 -13 -13 -13 -12 -12 -12 -11 -11 -11 -10 -11 -11 -11 -11 -11 -11 -11
-18 -18 -18 -18 -18 -18 -18 -18 -17 -17 -17 -16 -16 -15 -15 -15 -14 -14 -14 -14 -14 -14 -14 -13 -13 -13 -13 -13 -14 -13 -13 -13 -12 -12 -12 -11 -11 -11 -11 -11 -11 -11 -11 -11 -11
-18 -18 -18 -19 -18 -18 -18 -18 -18 -17 -17 -17 -17 -16 -16 -15 -15 -15 -14 -14 -14 -14 -14 -14 -14 -14 -14 -14 -14 -13 -13 -14 -13 -13 -12 -11 -11 -12 -12 -12 -12 -12 -12 -12 -12
-19 -19 -19 -19 -19 -19 -18 -18 -17 -18 -18 -17 -17 -17 -17 -16 -16 -15 -15 -15 -15 -14 -15 -15 -14 -14 -14 -14 -14 -14 -13 -14 -14 -14 -13 -12 -12 -12 -12 -12 -13 -13 -13 -13 -13
-19 -19 -19 -19 -19 -19 -19 -18 -18 -17 -18 -18 -17 -17 -17 -17 -17 -17 -16 -16 -15 -15 -15 -15 -15 -15 -14 -15 -15 -15 -15 -15 -15 -14 -14 -13 -13 -13 -13 -13 -14 -14 -14 -14 -14
-21 -20 -20 -19 -20 -19 -19 -18 -19 -18 -18 -18 -18 -18 -18 -18 -18 -18 -17 -17 -16 -16 -16 -16 -16 -16 -16 -15 -15 -15 -15 -15 -15 -15 -14 -14 -13 -14 -14 -15 -15 -14 -14 -14 -15
-23 -22 -21 -20 -19 -20 -19 -19 -19 -19 -19 -19 -19 -18 -18 -18 -18 -17 -17 -18 -17 -17 -17 -17 -17 -16 -16 -16 -16 -16 -16 -16 -16 -16 -15 -15 -15 -15 -15 -16 -16 -16 -15 -15 -15
-24 -23 -22 -21 -20 -21 -21 -20 -20 -19 -19 -19 -19 -19 -18 -19 -18 -18 -18 -17 -17 -17 -17 -17 -17 -17 -17 -17 -17 -17 -17 -17 -17 -16 -16 -15 -16 -16 -16 -16 -16 -16 -16 -16 -16
-24 -24 -23 -22 -22 -22 -22 -21 -21 -20 -21 -19 -19 -19 -19 -19 -18 -18 -18 -18 -18 -18 -18 -18 -18 -18 -18 -17 -17 -17 -17 -16 -17 -16 -16 -16 -16 -16 -17 -17 -17 -17 -16 -16 -16
-25 -24 -24 -23 -23 -23 -22 -21 -21 -22 -21 -20 -19 -19 -19 -18 -18 -18 -18 -19 -19 -18 -18 -18 -18 -18 -18 -18 -18 -17 -16 -17 -17 -17 -17 -17 -16 -16 -17 -17 -17 -16 -16 -16 -16
Height
5700 5706 5714 5719 5723 5727 5731 5735 5743 5750 5752 5761 5766 5772 5778 5787 5792 5796 5803 5809 5814 5818 5822 5828 5832 5836 5840 5843 5844 5848 5851 5852 5856 5858 5858 5858 5859 5860 5861 5861 5864 5866 5867 5868 5867
5695 5702 5709 5715 5720 5724 5730 5733 5740 5747 5753 5758 5765 5772 5776 5781 5788 5794 5801 5806 5812 5817 5820 5826 5831 5835 5838 5842 5844 5847 5850 5852 5854 5857 5858 5859 5859 5860 5862 5862 5863 5866 5867 5868 5869
5690 5698 5705 5711 5715 5722 5727 5732 5738 5746 5753 5757 5763 5767 5773 5780 5788 5793 5798 5804 5808 5814 5818 5824 5828 5833 5837 5840 5844 5846 5848 5851 5853 5856 5856 5859 5859 5860 5861 5863 5864 5865 5867 5868 5869
5686 5693 5700 5707 5712 5717 5721 5729 5736 5743 5750 5755 5761 5767 5772 5778 5787 5790 5796 5801 5806 5811 5817 5822 5827 5831 5835 5838 5841 5843 5847 5849 5852 5854 5857 5858 5860 5860 5861 5863 5863 5865 5865 5866 5868
5681 5688 5696 5703 5709 5713 5718 5724 5732 5741 5747 5752 5758 5764 5770 5776 5783 5788 5791 5798 5803 5809 5815 5818 5824 5829 5833 5836 5839 5842 5845 5847 5850 5852 5855 5857 5859 5859 5860 5861 5863 5864 5865 5865 5866
5676 5684 5691 5698 5705 5710 5714 5720 5726 5735 5743 5748 5755 5761 5767 5774 5778 5784 5789 5797 5799 5805 5812 5815 5820 5826 5829 5832 5835 5839 5842 5844 5847 5850 5852 5855 5856 5857 5859 5861 5861 5862 5864 5863 5864
5671 5678 5685 5692 5700 5707 5713 5717 5726 5731 5737 5745 5752 5758 5763 5770 5774 5780 5786 5793 5798 5802 5807 5812 5816 5822 5826 5828 5831 5835 5839 5841 5843 5846 5849 5852 5853 5853 5858 5858 5860 5861 5862 5862 5862
5664 5672 5679 5686 5693 5701 5709 5715 5721 5728 5734 5740 5747 5754 5760 5766 5771 5777 5783 5789 5793 5798 5804 5809 5812 5816 5821 5825 5828 5831 5835 5837 5840 5842 5845 5848 5849 5851 5853 5856 5858 5859 5860 5861 5861
5657 5665 5673 5680 5688 5695 5703 5709 5715 5723 5730 5735 5743 5749 5756 5763 5768 5774 5778 5783 5789 5795 5800 5803 5808 5812 5817 5821 5825 5827 5831 5834 5835 5838 5841 5843 5846 5847 5850 5852 5855 5856 5857 5858 5858
5650 5659 5666 5674 5682 5689 5697 5704 5710 5718 5725 5732 5738 5745 5752 5758 5762 5768 5774 5780 5785 5790 5796 5800 5804 5808 5812 5817 5821 5824 5825 5828 5831 5835 5836 5839 5841 5842 5844 5848 5850 5852 5852 5854 5855
5643 5652 5659 5667 5675 5683 5690 5698 5706 5713 5719 5728 5736 5741 5748 5752 5758 5764 5770 5774 5780 5784 5790 5795 5800 5806 5808 5810 5813 5817 5820 5823 5826 5829 5831 5833 5836 5837 5838 5843 5845 5846 5848 5849 5850
5634 5644 5652 5660 5667 5676 5683 5691 5700 5709 5714 5720 5727 5734 5739 5746 5752 5758 5764 5770 5775 5780 5785 5790 5795 5797 5801 5805 5809 5813 5816 5819 5821 5823 5825 5827 5832 5833 5833 5837 5839 5841 5842 5842 5843
5629 5638 5644 5651 5660 5668 5676 5684 5690 5697 5705 5712 5719 5725 5732 5740 5746 5752 5758 5764 5769 5773 5779 5783 5788 5791 5796 5800 5803 5807 5810 5812 5814 5816 5818 5821 5827 5828 5829 5831 5832 5833 5834 5835 5837
5621 5630 5637 5643 5654 5660 5668 5675 5682 5689 5695 5703 5710 5717 5724 5731 5739 5745 5751 5758 5763 5768 5771 5775 5780 5785 5790 5794 5797 5800 5803 5806 5808 5810 5813 5817 5819 5824 5825 5825 5824 5826 5828 5830 5831
5615 5622 5630 5638 5644 5653 5662 5667 5673 5679 5683 5692 5700 5710 5718 5725 5734 5739 5745 5749 5755 5759 5766 5772 5775 5780 5784 5787 5789 5793 5795 5799 5802 5804 5807 5811 5811 5817 5819 5818 5818 5819 5820 5822 5824
5608 5615 5623 5630 5636 5643 5650 5658 5663 5667 5672 5685 5692 5701 5710 5717 5724 5729 5735 5742 5746 5752 5758 5763 5767 5771 5775 5778 5781 5785 5788 5791 5794 5797 5801 5803 5805 5807 5809 5811 5812 5812 5813 5814 5816
5599 5609 5615 5623 5629 5634 5640 5645 5651 5656 5668 5678 5686 5694 5702 5708 5714 5719 5727 5734 5739 5745 5751 5755 5759 5764 5768 5771 5773 5778 5781 5784 5788 5789 5793 5794 5798 5798 5797 5802 5803 5805 5807 5807 5808
5591 5599 5608 5614 5622 5628 5633 5637 5641 5652 5660 5666 5676 5682 5691 5697 5703 5711 5718 5723 5730 5735 5740 5745 5750 5756 5760 5763 5767 5769 5772 5775 5777 5780 5786 5786 5788 5788 5787 5790 5792 5795 5797 5798 5800
5582 5591 5597 5605 5614 5621 5627 5625 5636 5644 5654 5662 5668 5673 5680 5686 5694 5701 5707 5714 5719 5727 5731 5735 5739 5744 5748 5750 5754 5759 5763 5766 5768 5771 5774 5778 5780 5779 5779 5780 5780 5785 5787 5787 5788
5573 5580 5588 5596 5604 5612 5614 5617 5629 5638 5643 5650 5658 5665 5672 5679 5685 5690 5696 5704 5710 5715 5718 5722 5728 5732 5735 5739 5743 5748 5753 5753 5757 5761 5764 5767 5769 5769 5770 5771 5770 5769 5773 5776 5777
5563 5572 5580 5587 5594 5598 5600 5611 5619 5625 5632 5642 5648 5655 5662 5668 5674 5679 5685 5693 5698 5703 5705 5711 5715 5720 5722 5728 5733 5736 5739 5742 5746 5749 5752 5757 5759 5758 5760 5761 5761 5759 5760 5763 5766
5551 5561 5570 5575 5582 5586 5593 5602 5610 5615 5623 5630 5637 5644 5651 5657 5662 5668 5673 5678 5685 5690 5693 5699 5701 5705 5712 5716 5719 5723 5727 5730 5731 5738 5741 5744 5748 5748 5747 5748 5748 5752 5751 5751 5751
5539 5550 5556 5563 5570 5577 5586 5594 5600 5605 5612 5620 5626 5633 5639 5646 5651 5655 5661 5667 5672 5678 5681 5686 5686 5691 5696 5703 5707 5710 5716 5719 5722 5725 5730 5733 5737 5736 5737 5737 5737 5740 5740 5739 5739
5530 5536 5543 5549 5561 5570 5576 5583 5591 5598 5605 5609 5614 5622 5628 5633 5639 5645 5649 5655 5660 5665 5669 5672 5677 5681 5688 5695 5699 5702 5707 5710 5712 5713 5720 5724 5725 5724 5725 5727 5724 5726 5728 5727 5726
5519 5525 5532 5541 5548 5558 5565 5572 5580 5587 5594 5601 5604 5610 5617 5623 5628 5633 5638 5643 5648 5653 5657 5662 5667 5672 5675 5678 5682 5688 5692 5695 5697 5702 5703 5711 5712 5714 5715 5712 5712 5712 5712 5712 5712
5509 5516 5524 5532 5540 5545 5551 5561 5570 5575 5582 5591 5596 5600 5605 5612 5616 5621 5625 5629 5635 5641 5645 5649 5655 5659 5663 5665 5669 5673 5679 5682 5684 5686 5690 5695 5703 5702 5699 5699 5697 5697 5697 5698 5698
5498 5505 5512 5519 5526 5532 5542 5552 5559 5563 5569 5578 5585 5589 5593 5599 5603 5608 5611 5618 5626 5631 5634 5637 5642 5645 5649 5652 5654 5659 5668 5668 5672 5675 5677 5680 5692 5688 5685 5685 5683 5682 5683 5683 5682
Wind_Speed
35 36 38 38 37 31 37 38 36 38 44 40 42 43 44 46 45 40 40 39 38 35 33 31 28 27 24 22 20 18 15 12 11 10 9 8 6 7 7 8 6 6 4 3 4
37 37 41 40 37 38 40 34 34 32 43 38 39 44 44 41 43 44 42 39 37 35 33 32 30 27 25 22 20 17 15 13 11 9 7 7 7 6 6 5 5 5 5 4 4
39 39 42 45 40 39 41 39 36 34 38 41 41 40 43 45 45 45 43 41 38 36 34 33 31 28 25 23 20 18 16 14 12 10 9 8 7 6 5 4 3 2 3 3 2
39 40 41 45 44 40 40 37 37 33 39 39 42 42 43 46 45 43 43 41 40 37 36 33 31 30 28 24 22 19 16 15 14 10 10 9 8 7 6 5 4 5 3 1 0
42 42 43 47 45 43 45 44 46 37 37 39 38 39 40 43 44 44 40 40 40 38 37 35 33 31 28 25 24 21 19 18 16 14 14 12 11 12 10 8 6 6 6 3 3
43 43 45 47 47 43 42 40 40 42 39 36 38 37 38 39 41 39 41 41 38 40 39 36 34 33 30 28 26 23 22 20 19 19 17 16 15 18 12 10 9 9 8 7 6
47 47 46 47 48 50 45 42 46 38 46 40 37 39 37 39 37 37 38 40 37 38 38 37 36 34 32 31 29 26 25 24 23 22 20 20 20 22 16 17 14 12 11 10 9
50 49 46 47 49 52 51 46 45 44 41 43 39 39 37 37 38 37 38 37 35 38 38 39 37 35 34 32 30 29 27 26 26 25 23 24 23 23 23 21 18 16 15 14 12
51 50 47 48 49 50 54 53 48 51 46 43 43 41 39 37 36 36 35 35 37 37 38 37 37 35 34 33 32 30 28 28 28 27 25 25 25 26 26 24 22 20 17 17 18
51 50 52 47 48 50 51 53 50 49 48 49 46 43 41 40 38 35 36 37 37 38 38 37 37 36 35 34 31 30 29 29 28 27 26 24 26 27 27 26 25 24 22 21 20
50 51 54 49 49 51 52 54 54 53 49 50 47 44 43 40 45 40 38 36 36 35 37 38 37 35 32 34 35 34 31 30 29 29 28 28 27 27 28 27 27 27 26 24 25
55 52 53 53 49 51 52 52 51 53 54 50 52 44 41 41 42 40 39 38 38 37 36 37 35 35 36 35 35 33 31 29 29 30 31 29 26 28 29 27 28 28 28 29 28
52 48 53 58 57 50 52 53 53 55 57 54 54 50 46 42 43 43 40 40 39 38 38 37 36 36 35 35 35 33 32 30 31 32 32 30 27 28 29 29 29 30 31 31 31
57 50 53 55 56 52 51 52 53 56 58 59 59 59 55 51 47 43 42 42 41 40 38 40 39 38 36 35 35 34 32 32 32 32 33 30 29 25 27 29 31 31 31 31 33
52 53 52 55 50 58 50 50 53 54 58 57 60 58 58 59 49 50 47 47 42 41 41 40 39 37 36 34 35 34 34 34 35 34 32 31 34 28 26 28 30 32 32 32 33
52 51 49 44 49 52 58 57 54 57 62 59 60 61 62 62 59 57 53 48 48 47 46 44 42 41 39 39 38 37 36 36 35 34 34 33 34 35 33 32 31 32 33 34 34
52 56 51 47 45 51 53 53 55 60 61 62 61 62 63 61 59 61 60 52 53 53 52 50 48 45 43 42 41 40 39 38 37 37 37 38 36 38 40 37 37 36 36 36 37
43 46 53 49 51 49 56 57 61 61 57 62 61 61 62 60 60 58 61 61 60 56 54 53 52 50 47 45 44 43 43 43 44 43 42 42 40 42 44 43 40 41 41 40 40
48 47 52 50 44 46 48 51 49 55 55 54 54 58 59 61 61 60 60 58 59 57 55 54 54 53 50 49 49 49 48 47 48 48 49 47 46 47 47 48 48 43 44 45 46
48 59 54 48 52 55 57 48 46 52 54 53 52 50 52 54 57 59 60 60 58 56 56 57 56 55 53 53 53 53 51 51 52 52 53 53 52 53 50 50 53 53 48 47 48
53 50 53 51 48 52 58 62 54 49 54 57 48 52 52 52 53 54 54 58 59 58 58 57 58 58 58 58 56 55 55 55 54 54 55 55 56 57 57 55 53 53 51 49 50
56 55 59 53 53 54 51 52 52 54 52 51 48 48 50 53 56 53 51 52 52 51 52 55 60 60 57 56 55 55 55 56 56 54 54 54 55 55 56 55 54 52 52 52 49
59 60 61 62 59 57 53 57 51 56 51 54 54 51 51 48 53 57 59 62 60 58 55 55 58 57 57 57 56 57 57 56 55 55 55 55 58 57 55 52 51 52 54 54 54
53 61 65 66 64 59 57 55 55 59 53 54 51 50 49 54 53 52 54 58 58 56 55 54 59 62 63 60 59 58 57 55 54 56 56 55 53 54 52 48 50 50 48 49 49
50 56 57 61 65 58 54 57 55 55 53 52 50 57 56 57 55 55 54 56 56 57 56 58 56 54 53 54 53 51 52 53 57 58 58 56 54 51 49 49 50 52 53 55 58
52 50 55 59 53 52 53 53 52 54 57 53 51 50 46 43 53 48 46 49 51 48 50 52 53 54 53 56 58 57 55 55 56 57 58 57 53 50 54 55 57 59 61 63 66
51 52 52 55 55 55 53 53 53 54 60 62 59 56 52 50 51 57 53 52 54 53 51 54 54 56 57 58 59 60 62 61 59 59 58 58 54 57 59 60 63 65 67 71 72
Wind_Direction
202 203 196 193 191 194 182 172 175 181 186 186 180 177 178 179 176 176 179 180 180 178 174 174 173 173 173 172 166 164 163 154 157 156 153 137 134 121 113 112 97 100 96 94 93
200 203 196 191 188 190 187 185 177 183 183 184 188 183 181 178 178 180 182 180 181 180 176 177 178 179 180 178 174 172 167 168 178 170 155 152 151 154 143 133 123 107 101 87 88
199 201 198 194 182 189 194 186 178 185 186 187 190 187 185 184 183 183 182 181 181 182 181 182 183 184 187 183 182 183 176 184 190 194 173 183 175 166 167 179 207 150 120 104 76
200 200 200 202 193 188 189 191 182 189 187 190 188 191 188 187 188 186 185 184 185 186 187 189 190 191 192 192 192 193 193 192 206 205 220 205 200 199 187 193 218 247 221 191 54
200 198 199 201 202 200 190 189 182 184 190 194 192 190 191 191 190 190 186 190 189 191 192 193 196 198 200 199 202 202 211 207 210 216 224 226 228 225 209 215 218 252 254 238 256
202 200 199 199 198 199 192 200 197 185 185 192 197 194 191 193 191 192 192 197 195 196 197 198 202 204 206 207 212 211 219 222 223 226 225 232 232 243 226 231 232 239 262 255 246
201 202 200 199 199 196 201 196 202 203 191 190 194 196 191 193 193 194 197 201 202 201 203 204 206 209 212 216 217 220 226 230 232 237 234 236 236 242 240 236 236 239 250 258 261
202 202 203 199 199 199 198 197 199 196 201 192 199 197 195 196 195 197 198 201 203 206 208 210 210 212 218 221 223 226 229 236 239 241 239 241 242 242 247 242 244 238 243 252 256
203 203 204 204 201 200 200 199 200 200 200 200 201 203 199 198 199 201 203 204 206 207 210 211 214 216 220 224 226 228 231 236 239 243 242 244 245 246 247 250 249 250 248 251 254
203 205 202 207 207 203 203 202 200 204 205 201 206 206 203 203 211 208 207 209 210 210 215 215 217 219 222 226 230 231 232 234 238 243 245 245 245 246 249 247 248 249 247 246 250
203 203 208 206 209 207 204 208 207 210 204 212 208 206 209 207 208 213 213 211 214 215 215 221 221 224 226 226 227 230 232 236 240 243 245 245 245 249 250 249 249 252 251 248 246
198 202 205 209 211 212 208 208 210 206 210 214 213 214 210 213 214 216 214 216 217 218 219 222 222 223 225 228 230 231 235 240 244 246 248 248 247 251 254 252 252 252 252 250 248
199 200 206 212 208 211 212 210 210 210 213 213 215 219 220 218 218 216 221 219 220 220 221 223 224 226 227 228 230 232 236 238 242 245 246 247 244 247 252 255 254 250 248 250 251
208 204 214 214 216 212 214 213 214 213 217 216 217 219 219 225 226 222 226 223 224 225 224 224 225 227 228 230 231 233 236 240 244 247 250 252 247 243 248 252 252 255 253 250 252
211 212 219 222 217 211 213 215 217 218 219 217 218 220 222 221 224 226 225 232 229 230 230 230 230 230 231 232 233 234 237 241 244 247 249 252 257 244 242 246 251 253 253 252 253
221 218 219 220 218 216 218 218 218 219 220 220 218 220 221 223 228 226 229 233 231 235 233 234 233 232 233 235 236 236 239 243 244 248 251 250 253 255 251 247 246 250 254 254 252
215 220 222 221 224 219 217 211 217 219 218 219 221 221 224 225 228 225 225 233 235 236 234 235 236 237 237 238 240 241 242 246 248 248 251 253 252 257 259 254 253 251 249 250 254
208 210 212 222 220 222 222 218 218 218 221 222 221 223 226 226 228 227 230 231 233 234 234 235 236 238 240 242 244 245 245 246 249 250 251 254 255 254 259 260 256 255 255 254 253
211 211 213 213 215 222 219 223 226 225 227 225 227 228 227 228 229 231 233 233 235 236 239 239 240 240 240 241 242 244 247 249 249 251 251 253 255 258 260 263 265 258 255 256 255
199 194 210 209 207 213 218 226 225 228 227 222 228 231 235 235 235 235 234 235 237 238 239 239 240 241 241 242 244 246 246 247 250 251 253 255 254 256 258 260 263 267 264 259 257
197 208 208 207 212 213 218 219 220 221 226 228 232 231 232 233 233 235 236 237 237 237 238 240 241 240 242 243 244 244 246 247 248 249 253 255 256 256 257 258 260 264 267 267 263
210 207 208 216 205 211 215 214 220 225 228 227 229 231 232 232 233 232 231 229 228 229 235 239 241 241 242 242 242 243 243 244 245 247 249 251 253 257 259 260 261 262 265 269 270
226 221 219 208 209 211 215 214 214 218 216 225 230 233 234 232 231 233 235 235 236 240 236 234 236 237 239 240 240 242 244 245 248 249 251 251 255 255 259 263 266 266 267 270 272
225 227 229 225 221 222 221 221 223 221 224 221 224 225 228 230 235 235 237 237 235 234 234 236 239 242 246 250 249 250 250 250 250 251 253 255 255 257 259 261 264 266 266 267 269
221 226 226 231 228 229 229 228 228 230 230 233 240 235 234 237 236 232 238 233 233 232 233 234 234 236 240 243 245 246 247 246 247 248 249 250 249 252 256 258 260 262 266 269 270
222 222 225 230 229 229 229 231 230 231 232 224 216 228 223 219 228 224 230 230 232 235 236 239 243 240 242 244 245 247 249 249 248 248 249 248 247 247 249 254 258 263 268 273 275
223 224 222 223 226 227 229 229 227 229 232 226 216 209 202 202 214 217 215 213 219 225 229 224 223 230 231 233 232 239 246 248 246 245 246 248 249 250 254 258 263 266 271 276 277